Regional Weather Roundup
Issued by NWS Northern Indiana

Home | Current Version | Previous Version | Graphics & Text | Print | Product List | Glossary On
Versions: 1 2 3 4 5 6 7 8 9 10 11 12 13 14 15 16 17 18 19 20 21 22 23 24 25 26 27 28 29 30 31 32 33 34 35 36 37 38 39 40 41 42 43 44 45 46 47 48 49 50
000
ASUS43 KIWX 281910
RWRIWX

KIWX WEATHER ROUNDUP
NATIONAL WEATHER SERVICE NORTHERN INDIANA
200 PM EST SAT FEB 28 2015

NOTE: "FAIR" INDICATES FEW OR NO CLOUDS BELOW 12,000 FEET WITH NO
SIGNIFICANT WEATHER AND/OR OBSTRUCTIONS TO VISIBILITY.

* THESE STATIONS ARE NOT UNDER NWS QUALITY CONTROL. THEY ALSO MAY NOT
  REPORT WEATHER SUCH AS PRECIPITATION OR FOG.

INZ001>027-282000-
NORTHERN INDIANA

CITY           SKY/WX    TMP DP  RH WIND       PRES   REMARKS
GARY*          SUNNY     21  -4  33 S9        30.66F WCI  11
VALPARAISO     SUNNY     17   3  54 E8        30.65F WCI   7
MICHIGAN CITY* MOSUNNY   21  -6  30 S9        30.66F WCI  11
LAPORTE*       MOSUNNY   21   4  47 SE5       30.65F WCI  15
KNOX*            N/A     21 -15  19 SE9       30.65F WCI  11
SOUTH BEND     PTSUNNY   20   3  48 S9        30.65F WCI   9
ELKHART*       SUNNY     19   0  42 S9        30.67F WCI   9
GOSHEN         PTSUNNY   22   4  46 SE6       30.65F WCI  14
MONTICELLO*    SUNNY     22   9  55 E7        30.64F WCI  14
LOGANSPORT*    SUNNY     23   9  54 E8        30.65F WCI  14
ROCHESTER*     SUNNY     27   7  43 E7        30.65F WCI  19
WARSAW*        SUNNY     21   3  45 S5        30.65F WCI  15
ANGOLA*        SUNNY     18   1  49 S8        30.65F WCI   7
FORT WAYNE     PTSUNNY   20   4  50 SE10      30.67F WCI   9
HUNTINGTON*    MOSUNNY   22   0  38 E7        30.65F WCI  13
PERU/GRISSOM   SUNNY     22   8  55 E10       30.63F WCI  11
MARION*        CLOUDY    21   4  46 SE9       30.65F WCI  11

$$
INZ028>050-282000-
CENTRAL INDIANA

CITY           SKY/WX    TMP DP  RH WIND       PRES   REMARKS
LAFAYETTE      SUNNY     24   9  52 SE9       30.63F WCI  14
KOKOMO*        SUNNY     21   9  58 SE10      30.64F WCI  10
MUNCIE*        CLOUDY    21   6  52 E10       30.63F WCI  10
INDIANAPOLIS   MOSUNNY   23   5  46 SE12      30.61F WCI  12

$$
MIZ043>046-050>051-056>058-064>065-071>073-077>080-282000-
SOUTHWEST LOWER MICHIGAN

CITY           SKY/WX    TMP DP  RH WIND       PRES   REMARKS
BATTLE CREEK   SUNNY     18  -1  43 SW8       30.66F WCI   8
BENTON HARBOR  SUNNY     16  -2  45 VRB3      30.67F
COLDWATER*     SUNNY     19   1  47 SW6       30.66F WCI  10
HILLSDALE*     SUNNY     18   2  48 SW9       30.64F WCI   7
HOLLAND        SUNNY     20   0  41 SW7       30.67F WCI  11
GRAND RAPIDS   MOSUNNY   18   2  49 SW6       30.66F WCI  10
KALAMAZOO        N/A     17  -1  45 S10       30.66F WCI   5
STURGIS*       SUNNY     18   3  53 S3        30.65F
THREE RIVERS*  FAIR      18   2  49 SW7       30.67F WCI   9

$$
OHZ001>008-015>018-024>025-282000-
NORTHWEST OHIO

CITY           SKY/WX    TMP DP  RH WIND       PRES   REMARKS
WAUSEON*       FAIR      18   3  53 S8        30.70F WCI   7
DEFIANCE       MOSUNNY   20   0  41 S8        30.70F WCI  10
FINDLAY        SUNNY     18   2  49 SE8       30.69F WCI   8
TOLEDO EXPRESS SUNNY     18   0  45 S7        30.71F WCI   9
TOLEDO METCALF SUNNY     19   2  47 S6        30.73F WCI  11
LIMA           PTSUNNY   20   2  45 E8        30.66F WCI  10

$$
AND FOR LAKE MICHIGAN COASTAL AND OPEN LAKE BUOY OBSERVATIONS

STATION/POSITION TEMP    WIND        PRES    VSBY  WAVE
                 AIR SEA DIR/SP/G                  HT/PER
                 (F)     (DEG/KT/KT) (MB)    (MI)  (FT/S)
CALUMET HARBOR    19     120/  6/  9 1036.6F
MICHIGAN CITY     18     140/  7/  9   N/A
SAINT JOSEPH      21     160/  1/  7 1038.9S

$$
&&


USA.gov is the U.S. government's official web portal to all federal, state and local government web resources and services.